x

La Perouse Bank (46206) Wave Buoy

12:00 - Wed 28th Jan 2015 All times are PST. -8 hours from GMT.

  • Sig Wave height 6.6ft
  • Peak Period 14s
  • Wind
    7mph, 9mph gusts
  • Sea Temp 50°f
  • Ar Temp 48°f
  • Sea Pressure 1025.9mb
  • La Perouse Bank
  • La Perouse Bank

More Historic Weather Station data

Upgrade to MSW Pro to gain access to the past 30 days of data for over 8000 Wavebouys and Weather Stations around the globe.

Join Pro

Comparision Forecast

View Surf forecast
   
Qua 01/28 12:00 6.5ft 14s 7 9 mph 1025.9mb 50f 48f
Ter 01/27 11:00 6.5ft 9s 9 11 mph 1025.5mb 50f 48f
10:00 7ft 9s 11 16 mph 1025mb 50f 49f
9:00 7ft 8s 13 16 mph 1024.5mb 51f 49f
8:00 8ft 11s 13 16 mph 1023.7mb 52f 48f
7:00 8ft 10s 13 18 mph 1022.9mb 51f 49f
6:00 9.5ft 10s 16 20 mph 1022.2mb 51f 49f
5:00 9ft 11s 18 22 mph 1021.8mb 51f 49f
4:00 9ft 12s 20 27 mph 1021.4mb 51f 49f
3:00 9ft 12s 18 22 mph 1021.1mb 51f 49f
2:00 8ft 8s 18 22 mph 1020.7mb 51f 49f
1:00 8ft 12s 18 22 mph 1020.5mb 51f 49f
12:00 9ft 9s 18 22 mph 1020.2mb 51f 50f
11:00 8ft 14s 18 22 mph 1019.9mb 51f 50f
10:00 8ft 14s 16 20 mph 1019.1mb 51f 50f
9:00 7.5ft 13s 18 20 mph 1018.2mb 51f 50f
8:00 7.5ft 14s 20 22 mph 1017.4mb 52f 50f
7:00 7.5ft 13s 18 20 mph 1016.7mb 52f 50f
6:00 8ft 8s 18 22 mph 1016.2mb 52f 49f
5:00 8ft 10s 18 25 mph 1015.7mb 52f 48f
4:00 8ft 10s 18 22 mph 1015.3mb 52f 49f
3:00 7.5ft 11s 16 20 mph 1014.9mb 52f 49f
2:00 7.5ft 10s 11 16 mph 1014.7mb 52f 50f
1:00 8ft 11s 13 18 mph 1014.2mb 52f 50f
12:00 8ft 12s 18 25 mph 1013.8mb 52f 50f
Seg 01/26 11:00 7.5ft 13s 18 22 mph 1013.6mb 52f 51f
10:00 7.5ft 13s 18 22 mph 1013.1mb 52f 51f
9:00 7ft 13s 18 20 mph 1012.9mb 52f 51f
8:00 8ft 13s 18 22 mph 1012.4mb 52f 51f
7:00 7.5ft 13s 18 22 mph 1012.1mb 52f 51f
6:00 8ft 13s 18 20 mph 1012.1mb 52f 51f
5:00 8.5ft 14s 13 18 mph 1011.9mb 52f 50f
4:00  -   -  18
mph
- - 51f
3:00 8.5ft 14s 11 16 mph 1012.3mb 52f 51f
2:00 8ft 13s 16 20 mph 1012.2mb 51f 51f
1:00 8ft 11s 18 22 mph 1012.2mb 51f 52f
12:00 8ft 11s 22 27 mph 1011.4mb 51f 51f
11:00 7.5ft 11s 25 31 mph 1011mb 51f 51f
10:00 8ft 12s 22 29 mph 1010.9mb 51f 52f
9:00 8ft 14s 22 27 mph 1010.9mb 51f 52f
8:00 8ft 12s 22 29 mph 1010.4mb 51f 52f
7:00 9ft 12s 20 27 mph 1010.4mb 51f 51f
6:00 8ft 13s 22 29 mph 1010.4mb 51f 52f
5:00 8.5ft 12s 18 22 mph 1011.1mb 51f 52f
4:00 8.5ft 11s 16 18 mph 1011.8mb 51f 51f
3:00 9ft 14s 11 13 mph 1012.4mb 51f 51f
2:00 8.5ft 14s 13 16 mph 1013mb 52f 51f
1:00 8ft 15s 16 20 mph 1013.2mb 51f 51f
12:00 8ft 11s 18 22 mph 1013.7mb 51f 52f
Dom 01/25 11:00 8.5ft 12s 16 20 mph 1014.2mb 52f 52f
10:00 8ft 11s 18 22 mph 1014.2mb 51f 52f
9:00 9ft 14s 18 22 mph 1015mb 52f 52f
8:00 9ft 12s 20 22 mph 1015.5mb 52f 52f
7:00 9.5ft 12s 18 25 mph 1016.2mb 52f 52f
6:00 9ft 12s 16 22 mph 1016.8mb 51f 52f
5:00 10ft 12s 16 20 mph 1017mb 51f 52f
4:00 11ft 11s 13 18 mph 1017.6mb 51f 51f
3:00 11ft 14s 13 18 mph 1018.2mb 51f 51f
2:00 10ft 14s 13 18 mph 1018.5mb 51f 51f
1:00 10.5ft 13s 13 18 mph 1019.8mb 51f 51f
12:00 10.5ft 14s 13 18 mph 1020.4mb 51f 51f
11:00 10ft 14s 11 16 mph 1021.4mb 51f 51f
10:00 9ft 12s 13 18 mph 1021mb 51f 52f
9:00 10ft 15s 13 16 mph 1020.7mb 51f 52f
8:00 10ft 12s 9 11 mph 1020.4mb 51f 52f
7:00 10ft 12s 13 16 mph 1020.3mb 51f 52f
6:00 9.5ft 10s 13 16 mph 1020.2mb 51f 52f
5:00 11ft 11s 13 16 mph 1020.6mb 51f 52f
4:00 10.5ft 10s 13 16 mph 1021.1mb 51f 52f
3:00 10ft 14s 13 16 mph 1021.7mb 51f 52f
2:00 10ft 12s 13 16 mph 1021.8mb 51f 52f
1:00 10ft 14s 16 18 mph 1021.3mb 51f 52f
12:00 9.5ft 12s 16 18 mph 1021.5mb 51f 52f
Sáb 01/24 11:00 10ft 12s 16 20 mph 1021.4mb 51f 52f
10:00 10ft 12s 16 18 mph 1021.8mb 51f 52f
9:00 10.5ft 13s 13 16 mph 1021.5mb 51f 52f
8:00 11ft 13s 13 18 mph 1021.7mb 51f 52f
6:00 11ft 14s 13 18 mph 1021.7mb 51f 52f
5:00 11ft 14s 16 18 mph 1021.2mb 51f 52f
4:00 10ft 14s 13 18 mph 1021.7mb 51f 52f
3:00 10ft 15s 13 18 mph 1021.6mb 51f 52f
2:00 11ft 14s 16 18 mph 1021.6mb 51f 52f
1:00 11.5ft 15s 13 16 mph 1021.9mb 51f 52f
12:00 10.5ft 13s 13 16 mph 1022.6mb 51f 52f
11:00 10.5ft 12s 16 18 mph 1023.1mb 51f 52f
10:00 10.5ft 14s 16 18 mph 1022.8mb 51f 52f